Regional Weather Roundup
Issued by NWS Northern Indiana

Home | Current Version | Previous Version | Graphics & Text | Print | Product List | Glossary On
Versions: 1 2 3 4 5 6 7 8 9 10 11 12 13 14 15 16 17 18 19 20 21 22 23 24 25 26 27 28 29 30 31 32 33 34 35 36 37 38 39 40 41 42 43 44 45 46 47 48 49 50
000
ASUS43 KIWX 191310
RWRIWX

KIWX WEATHER ROUNDUP
NATIONAL WEATHER SERVICE NORTHERN INDIANA
900 AM EDT SUN APR 19 2015

NOTE: "FAIR" INDICATES FEW OR NO CLOUDS BELOW 12,000 FEET WITH NO
SIGNIFICANT WEATHER AND/OR OBSTRUCTIONS TO VISIBILITY.

* THESE STATIONS ARE NOT UNDER NWS QUALITY CONTROL. THEY ALSO MAY NOT
  REPORT WEATHER SUCH AS PRECIPITATION OR FOG.

INZ001>027-191400-
NORTHERN INDIANA

CITY           SKY/WX    TMP DP  RH WIND       PRES   REMARKS
GARY*          PTSUNNY   57  27  30 MISG      29.85F
VALPARAISO     MOSUNNY   56  33  42 E16       29.86F
MICHIGAN CITY* MOSUNNY   54  25  32 SE9G17    29.87F
KNOX*          PTSUNNY   54  12  19 E13       29.85F
SOUTH BEND     PTSUNNY   55  29  36 E15       29.90F
GOSHEN         PTSUNNY   53  35  50 E20       29.89F
MONTICELLO*    MOSUNNY   55  40  57 E8        29.81F
LOGANSPORT*    MOSUNNY   52  37  58 E13       29.84F
ROCHESTER*     PTSUNNY   55  36  47 E15G21    29.86F
WARSAW*        PTSUNNY   54  34  47 E12G18    29.88F
ANGOLA*        SUNNY     52  32  46 E12       29.93F
FORT WAYNE     PTSUNNY   52  35  52 E16       29.90F
HUNTINGTON*    MOSUNNY   52  32  46 E14G21    29.88F
PERU/GRISSOM   MOSUNNY   53  39  58 E17       29.82F
MARION*        MOSUNNY   52  38  58 E16G22    29.84F

$$
INZ028>050-191400-
CENTRAL INDIANA

CITY           SKY/WX    TMP DP  RH WIND       PRES   REMARKS
LAFAYETTE      PTSUNNY   52  42  69 E12       29.80F
KOKOMO*        MOSUNNY   54  39  58 E17       29.83F
MUNCIE*        PTSUNNY   56  41  57 E14       29.84F
INDIANAPOLIS   LGT RAIN  61  44  53 E14       29.77F

$$
MIZ043>046-050>051-056>058-064>065-071>073-077>080-191400-
SOUTHWEST LOWER MICHIGAN

CITY           SKY/WX    TMP DP  RH WIND       PRES   REMARKS
BATTLE CREEK   PTSUNNY   51  28  41 E12       29.96F
BENTON HARBOR  PTSUNNY   53  31  42 E16G26    29.89F
COLDWATER*     PTSUNNY   50  29  43 E13       29.94F
HILLSDALE*     PTSUNNY   51  29  43 E14G22    29.96F
HOLLAND        PTSUNNY   52  32  46 E15       29.94F
GRAND RAPIDS   PTSUNNY   47  30  51 E18       29.97F
KALAMAZOO      PTSUNNY   52  29  41 E12       29.95F
STURGIS*       CLOUDY    52  30  43 E16G22    29.92F
THREE RIVERS*  FAIR      52  30  42 E10G16    29.93F

$$
OHZ001>008-015>018-024>025-191400-
NORTHWEST OHIO

CITY           SKY/WX    TMP DP  RH WIND       PRES   REMARKS
WAUSEON*       FAIR      48  36  61 NE16      29.96F
DEFIANCE       CLOUDY    51  33  50 NE10      29.94F
FINDLAY        PTSUNNY   53  34  48 NE13      29.92F
TOLEDO EXPRESS CLOUDY    49  35  58 E17       29.97F
TOLEDO METCALF PTSUNNY   48  35  60 NE14      29.99F
LIMA           MOSUNNY   57  38  48 E16       29.90F

$$
AND FOR LAKE MICHIGAN COASTAL AND OPEN LAKE BUOY OBSERVATIONS

STATION/POSITION TEMP    WIND        PRES    VSBY  WAVE
                 AIR SEA DIR/SP/G                  HT/PER
                 (F)     (DEG/KT/KT) (MB)    (MI)  (FT/S)
CALUMET HARBOR    51      70/  5/  7   N/A
MICHIGAN CITY     55      90/ 18/ 24   N/A
BURNS HARBOR      56     120/ 16/ 26 1011.2F
SAINT JOSEPH      57      70/  4/ 12 1012.5S
MICHIGAN CITY     52 44  130/ 14/ 17   N/A           3/ 6

$$
&&


USA.gov is the U.S. government's official web portal to all federal, state and local government web resources and services.